User: anonymous   Login
Location: Fort Wayne
(41.1310°N, 85.1290°W)
Time: 21:15:45
(UTC-04:00)
Language:

Cosmos 2082 - Orbit

View from above orbital plane
View from above orbital plane
View from above satellite
View from above satellite

Ground track
Ground track

The orbit data is extracted from the following two-line orbital elements,

1 20624U 90046A   17144.57264789 +.00000204 +00000-0 +13149-3 0  9995
2 20624 071.0417 263.9913 0013242 059.4708 300.7719 14.14227452393637
Epoch (UTC): 24 May 2017 13:44:36
Eccentricity: 0.0013242
inclination: 71.0417°
perigee height: 835 km
apogee height: 854 km
right ascension of ascending node: 263.9913°
argument of perigee: 59.4708°
revolutions per day: 14.14227452
mean anomaly at epoch: 300.7719°
orbit number at epoch: 39363

The dashed part of the orbit path shows where the satellite is in the earth's shadow,  

DLR